TimeMST,TemperatureF,Dew PointF,Humidity,Sea Level PressureIn,VisibilityMPH,Wind Direction,Wind SpeedMPH,Gust SpeedMPH,PrecipitationIn,Events,Conditions,WindDirDegrees,DateUTC
12:53 AM,18.0,12.0,78,30.50,10.0,WNW,4.6,-,N/A,,Clear,300,2014-01-15 07:53:00
1:53 AM,19.0,12.0,74,30.50,10.0,West,9.2,-,N/A,,Clear,270,2014-01-15 08:53:00
2:53 AM,19.0,10.9,71,30.49,10.0,West,9.2,-,N/A,,Clear,270,2014-01-15 09:53:00
3:53 AM,16.0,10.0,77,30.50,10.0,NW,4.6,-,N/A,,Clear,310,2014-01-15 10:53:00
4:53 AM,14.0,8.1,77,30.52,10.0,West,3.5,-,N/A,,Clear,280,2014-01-15 11:53:00
5:53 AM,15.1,8.1,74,30.52,10.0,West,13.8,-,N/A,,Clear,270,2014-01-15 12:53:00
6:53 AM,8.1,3.9,83,30.58,10.0,Calm,Calm,-,N/A,,Clear,0,2014-01-15 13:53:00
7:53 AM,17.1,10.0,74,30.54,10.0,West,12.7,-,N/A,,Clear,270,2014-01-15 14:53:00
8:53 AM,21.0,12.0,68,30.54,10.0,West,12.7,-,N/A,,Clear,260,2014-01-15 15:53:00
9:53 AM,25.0,16.0,69,30.54,10.0,West,12.7,-,N/A,,Clear,260,2014-01-15 16:53:00
10:53 AM,33.1,18.0,54,30.48,10.0,West,11.5,-,N/A,,Clear,270,2014-01-15 17:53:00
11:53 AM,37.0,21.0,52,30.47,10.0,NNW,6.9,-,N/A,,Clear,340,2014-01-15 18:53:00
12:53 PM,39.0,21.0,49,30.42,10.0,NW,9.2,-,N/A,,Clear,310,2014-01-15 19:53:00
1:53 PM,41.0,17.1,38,30.38,10.0,North,11.5,-,N/A,,Clear,10,2014-01-15 20:53:00
2:53 PM,41.0,21.0,45,30.37,10.0,North,9.2,-,N/A,,Clear,360,2014-01-15 21:53:00
3:53 PM,41.0,19.0,41,30.38,10.0,WNW,13.8,-,N/A,,Clear,300,2014-01-15 22:53:00
4:53 PM,37.9,19.0,47,30.41,10.0,NNW,11.5,-,N/A,,Clear,330,2014-01-15 23:53:00
5:53 PM,34.0,17.1,50,30.42,10.0,NW,12.7,-,N/A,,Clear,320,2014-01-16 00:53:00
6:53 PM,30.0,12.0,47,30.49,10.0,North,12.7,-,N/A,,Clear,350,2014-01-16 01:53:00
7:53 PM,27.0,10.9,51,30.44,10.0,NNW,11.5,-,N/A,,Clear,340,2014-01-16 02:53:00
8:53 PM,28.9,10.0,45,30.40,10.0,NW,11.5,-,N/A,,Clear,310,2014-01-16 03:53:00
9:53 PM,25.0,10.0,53,30.41,10.0,NNW,11.5,-,N/A,,Clear,330,2014-01-16 04:53:00
10:53 PM,26.1,8.1,47,30.36,10.0,NW,6.9,-,N/A,,Clear,310,2014-01-16 05:53:00
11:53 PM,26.1,7.0,44,30.33,10.0,NW,8.1,-,N/A,,Clear,310,2014-01-16 06:53:00